When you browse on this site, cookies collect data to enhance your experience and personalize the content and advertising you see.
Visit our Privacy Policy to learn more. By continuing to use the site, you agree to this use of cookies and data.
  • In Latvia
  • List of Countries
  • For 7 days
  • Water Temperature
  • Weather Map
  • Weather Widgets
  • user-avatar
    Login

    Hourly Weather Byki

    Today, 18 October, Friday

    Time Temperature Precipitation Wind Pressure Humidity
    00:00 +11°C° 0 mm 3 mps 745 mmHg 64%
    01:00 +12°C° 0 mm 2 mps 746 mmHg 66%
    02:00 +12°C° 0 mm 2 mps 745 mmHg 68%
    03:00 +12°C° 0 mm 2 mps 745 mmHg 70%
    04:00 +12°C° 0 mm 2 mps 745 mmHg 72%
    05:00 +12°C° 0 mm 2 mps 745 mmHg 72%
    06:00 +12°C° 0 mm 2 mps 745 mmHg 72%
    07:00 +13°C° 0 mm 2 mps 745 mmHg 71%
    08:00 +13°C° 0 mm 3 mps 745 mmHg 67%
    09:00 +16°C° 0 mm 3 mps 745 mmHg 62%
    10:00 +17°C° 0 mm 3 mps 745 mmHg 57%
    11:00 +18°C° 0 mm 3 mps 744 mmHg 54%
    12:00 +19°C° 0 mm 4 mps 744 mmHg 52%
    13:00 +20°C° 0 mm 4 mps 744 mmHg 49%
    14:00 +19°C° 0 mm 3 mps 743 mmHg 52%
    15:00 +19°C° 0 mm 3 mps 743 mmHg 56%
    16:00 +18°C° 0 mm 2 mps 743 mmHg 59%
    17:00 +17°C° 0 mm 2 mps 743 mmHg 61%
    18:00 +16°C° 0 mm 2 mps 743 mmHg 63%
    19:00 +15°C° 0 mm 2 mps 743 mmHg 65%
    20:00 +15°C° 0 mm 2 mps 743 mmHg 67%
    21:00 +14°C° 0 mm 3 mps 743 mmHg 69%
    22:00 +13°C° 0 mm 3 mps 743 mmHg 70%
    23:00 +13°C° 0 mm 3 mps 743 mmHg 74%

    Tomorrow, 19 October, Saturday

    Time Temperature Precipitation Wind Pressure Humidity
    00:00 +12°C° 0 mm 3 mps 743 mmHg 77%
    01:00 +12°C° 0 mm 3 mps 743 mmHg 80%
    02:00 +12°C° 0 mm 3 mps 743 mmHg 83%
    03:00 +11°C° 0 mm 3 mps 743 mmHg 86%
    04:00 +12°C° 0 mm 2 mps 743 mmHg 89%
    05:00 +12°C° 0 mm 2 mps 744 mmHg 88%
    06:00 +12°C° 0 mm 2 mps 744 mmHg 88%
    07:00 +12°C° 0 mm 2 mps 744 mmHg 88%
    08:00 +14°C° 0 mm 2 mps 744 mmHg 81%
    09:00 +15°C° 0 mm 2 mps 744 mmHg 74%
    10:00 +18°C° 0 mm 1 mps 744 mmHg 67%
    11:00 +18°C° 0 mm 1 mps 744 mmHg 64%
    12:00 +19°C° 0 mm 1 mps 744 mmHg 61%
    13:00 +20°C° 0 mm 1 mps 743 mmHg 58%
    14:00 +19°C° 0 mm 1 mps 743 mmHg 61%
    15:00 +19°C° 0 mm 1 mps 743 mmHg 64%
    16:00 +18°C° 0 mm 1 mps 743 mmHg 67%
    17:00 +16°C° 0 mm 1 mps 743 mmHg 69%
    18:00 +16°C° 0 mm 1 mps 743 mmHg 71%
    19:00 +15°C° 0 mm 1 mps 743 mmHg 73%
    20:00 +15°C° 0 mm 2 mps 743 mmHg 74%
    21:00 +14°C° 0 mm 2 mps 743 mmHg 76%
    22:00 +14°C° 0 mm 2 mps 743 mmHg 78%
    23:00 +14°C° 0 mm 2 mps 743 mmHg 78%

    Day after tomorrow, 20 October, Sunday

    Time Temperature Precipitation Wind Pressure Humidity
    00:00 +14°C° 0 mm 2 mps 743 mmHg 78%
    01:00 +14°C° 0 mm 2 mps 743 mmHg 78%
    02:00 +14°C° 0 mm 2 mps 743 mmHg 79%
    03:00 +13°C° 0 mm 2 mps 743 mmHg 79%
    04:00 +13°C° 0 mm 2 mps 743 mmHg 80%
    05:00 +13°C° 0 mm 2 mps 743 mmHg 80%
    06:00 +13°C° 0 mm 2 mps 743 mmHg 81%
    07:00 +13°C° 0 mm 2 mps 744 mmHg 81%
    08:00 +15°C° 0 mm 2 mps 744 mmHg 76%
    09:00 +16°C° 0 mm 3 mps 744 mmHg 70%
    10:00 +18°C° 0 mm 3 mps 744 mmHg 65%
    11:00 +19°C° 0 mm 3 mps 744 mmHg 61%
    12:00 +20°C° 0 mm 3 mps 744 mmHg 57%
    13:00 +21°C° 0 mm 2 mps 744 mmHg 53%
    14:00 +20°C° 0 mm 2 mps 744 mmHg 56%
    15:00 +20°C° 0 mm 1 mps 744 mmHg 59%
    16:00 +20°C° 0 mm 1 mps 744 mmHg 62%
    17:00 +19°C° 0 mm 1 mps 744 mmHg 66%
    18:00 +18°C° 0 mm 1 mps 744 mmHg 69%
    19:00 +16°C° 0 mm 2 mps 744 mmHg 72%
    20:00 +15°C° 0 mm 2 mps 744 mmHg 74%
    21:00 +15°C° 0 mm 2 mps 744 mmHg 76%
    22:00 +15°C° 0 mm 2 mps 744 mmHg 78%
    23:00 +15°C° 0 mm 2 mps 743 mmHg 80%

    21 October, Monday

    Time Temperature Precipitation Wind Pressure Humidity
    00:00 +14°C° 0 mm 2 mps 743 mmHg 81%
    01:00 +14°C° 0 mm 2 mps 743 mmHg 83%
    02:00 +14°C° 0 mm 2 mps 743 mmHg 83%
    03:00 +14°C° 0 mm 2 mps 743 mmHg 84%
    04:00 +14°C° 0 mm 2 mps 743 mmHg 84%
    05:00 +14°C° 0 mm 2 mps 743 mmHg 83%
    06:00 +14°C° 0 mm 2 mps 743 mmHg 82%
    07:00 +14°C° 0 mm 2 mps 743 mmHg 81%
    08:00 +15°C° 0 mm 2 mps 743 mmHg 74%
    09:00 +17°C° 0 mm 3 mps 744 mmHg 67%
    10:00 +19°C° 0 mm 4 mps 744 mmHg 60%
    11:00 +20°C° 0 mm 4 mps 744 mmHg 59%
    12:00 +20°C° 0 mm 4 mps 744 mmHg 59%
    13:00 +21°C° 0 mm 4 mps 745 mmHg 59%
    14:00 +20°C° 0 mm 4 mps 745 mmHg 63%
    15:00 +19°C° 0 mm 4 mps 745 mmHg 67%
    16:00 +18°C° 0 mm 3 mps 745 mmHg 70%
    17:00 +17°C° 0 mm 3 mps 746 mmHg 72%
    18:00 +16°C° 0 mm 3 mps 746 mmHg 74%
    19:00 +14°C° 0 mm 3 mps 747 mmHg 76%
    20:00 +14°C° 0 mm 3 mps 747 mmHg 73%
    21:00 +14°C° 0 mm 3 mps 747 mmHg 71%
    22:00 +14°C° 0 mm 3 mps 748 mmHg 68%
    23:00 +13°C° 0 mm 4 mps 748 mmHg 68%

    22 October, Tuesday

    Time Temperature Precipitation Wind Pressure Humidity
    00:00 +13°C° 0 mm 4 mps 748 mmHg 67%
    01:00 +13°C° 0 mm 4 mps 749 mmHg 66%
    02:00 +12°C° 0 mm 4 mps 749 mmHg 69%
    03:00 +12°C° 0 mm 4 mps 749 mmHg 71%
    04:00 +11°C° 0 mm 4 mps 750 mmHg 74%
    05:00 +11°C° 0 mm 4 mps 750 mmHg 77%
    06:00 +10°C° 0 mm 4 mps 750 mmHg 80%
    07:00 +10°C° 0 mm 4 mps 751 mmHg 83%
    08:00 +11°C° 0 mm 4 mps 751 mmHg 79%
    09:00 +12°C° 0 mm 5 mps 752 mmHg 75%
    10:00 +13°C° 0 mm 5 mps 752 mmHg 71%
    11:00 +13°C° 0 mm 4 mps 752 mmHg 68%
    12:00 +14°C° 0 mm 4 mps 752 mmHg 65%
    13:00 +14°C° 0 mm 4 mps 752 mmHg 62%
    14:00 +13°C° 0 mm 3 mps 752 mmHg 64%
    15:00 +13°C° 0 mm 3 mps 752 mmHg 65%
    16:00 +14°C° 0 mm 2 mps 752 mmHg 66%
    17:00 +14°C° 0 mm 2 mps 753 mmHg 67%
    18:00 +13°C° 0 mm 1 mps 753 mmHg 68%
    19:00 +13°C° 0 mm 1 mps 753 mmHg 69%
    20:00 +13°C° 0 mm 1 mps 753 mmHg 70%
    21:00 +13°C° 0 mm 1 mps 753 mmHg 71%
    22:00 +12°C° 0 mm 1 mps 753 mmHg 73%
    23:00 +12°C° 0 mm 1 mps 753 mmHg 75%

    23 October, Wednesday

    Time Temperature Precipitation Wind Pressure Humidity
    00:00 +11°C° 0 mm 1 mps 753 mmHg 78%
    01:00 +10°C° 0 mm 1 mps 753 mmHg 80%
    02:00 +10°C° 0 mm 1 mps 753 mmHg 82%
    03:00 +8°C° 0 mm 0 mps 753 mmHg 84%
    04:00 +8°C° 0 mm 0 mps 753 mmHg 86%
    05:00 +8°C° 0 mm 0 mps 753 mmHg 86%
    06:00 +9°C° 0 mm 1 mps 753 mmHg 86%
    07:00 +9°C° 0 mm 1 mps 753 mmHg 86%
    08:00 +10°C° 0 mm 1 mps 753 mmHg 78%
    09:00 +12°C° 0 mm 1 mps 752 mmHg 71%
    10:00 +14°C° 0 mm 2 mps 752 mmHg 63%
    11:00 +14°C° 0 mm 2 mps 752 mmHg 60%
    12:00 +14°C° 0 mm 3 mps 752 mmHg 57%
    13:00 +14°C° 0 mm 3 mps 751 mmHg 55%
    14:00 +14°C° 0 mm 3 mps 751 mmHg 58%
    15:00 +13°C° 0 mm 3 mps 751 mmHg 62%
    16:00 +13°C° 0 mm 2 mps 750 mmHg 66%
    17:00 +11°C° 0 mm 3 mps 750 mmHg 69%
    18:00 +10°C° 0 mm 3 mps 750 mmHg 73%
    19:00 +10°C° 0 mm 3 mps 750 mmHg 76%
    20:00 +9°C° 0 mm 3 mps 750 mmHg 79%
    21:00 +9°C° 0 mm 3 mps 750 mmHg 81%
    22:00 +9°C° 0 mm 3 mps 750 mmHg 83%
    23:00 +8°C° 0 mm 3 mps 749 mmHg 85%
    Show more